Location: Peebles
(55.6412°N, 3.1714°W)
Time: 16:15:15
(UTC+01:00)

NAPA-1 - Visible Passes

Search period start: 03 July 2022 00:00
Search period end: 13 July 2022 00:00
Orbit: 524 x 531 km, 97.4° (Epoch: 02 July)

Date Brightness Start Highest point End Pass type
(mag) Time Alt. Az. Time Alt. Az. Time Alt. Az.
03 Jul ? 00:23:35 10° W 00:24:17 10° W 00:24:57 10° WNW visible
04 Jul ? 00:11:02 10° WSW 00:12:55 13° W 00:14:49 10° WNW visible
04 Jul ? 23:59:05 10° SW 00:01:35 17° W 00:04:05 10° NW visible
05 Jul ? 23:47:20 10° SW 23:50:15 21° W 23:53:11 10° NW visible
06 Jul ? 23:35:42 10° SSW 23:38:56 26° W 23:42:11 10° NW visible
07 Jul ? 23:24:10 10° SSW 23:27:38 32° W 23:31:07 10° NNW visible
08 Jul ? 23:12:43 10° S 23:16:21 41° W 23:20:00 10° NNW visible
09 Jul ? 23:01:20 10° S 23:05:04 52° W 23:08:51 10° NNW visible
10 Jul ? 22:50:01 10° S 22:53:49 68° WSW 22:57:39 10° NNW visible
12 Jul ? 00:15:59 10° WSW 00:17:30 12° W 00:18:59 10° WNW visible
